星链-11278 (STARLINK-11278)

导读 | 星芒AI

STARLINK-11278 是 SpaceX Starlink 项目中的一颗低轨通信卫星,属于第 11 批发射的 Starlink 卫星群。该卫星于 2020 年 11 月 12 日由猎鹰 9 号火箭从美国卡纳维拉尔角发射升空。它运行在约 550 公里的轨道高度,旨在为全球提供高速互联网服务。STARLINK-11278 采用先进的星间激光通信技术,提高数据传输效率,并具备自动避障功能,以减少与其他卫星或太空碎片的碰撞风险。该卫星是 SpaceX 打造全球宽带网络计划的重要组成部分。

基本信息
目录编号:
60990
目录名称:
STARLINK-11278
国际标识:
2024-158A
轨道中心:
EARTH
卫星名称:
星链-11278
卫星全名:
星链-11278 (STARLINK-11278)
卫星状态:
已陨落 最后检测时间 2024-09-12
发射日期:
2024-09-05 UTC
国别 :
美国 (US)
星等 :
--
轨道信息
数据来源 国际轨道数据
星历时间: 2024-09-13T14:16:04+0800
轨道信息已过期416天
半长轴: 6511.532km
偏心率: 0.0005192
轨道倾角: 53.150°
近地点辐角 232.240°
升交点赤经 77.557°
平近点角 278.143°
近地点: 130.016km
远地点: 136.778km
周期: 87.153分钟
每日圈数: 16.522587
详细信息
固有亮度:
5
最大亮度:
2.5
卫星平台:
Starlink V1.0
覆盖范围:
全球
运营商:
太空探索技术公司
运营商所在国:
美国
制造商(研发单位):
太空探索技术公司
制造商所在国:
美国
使用方式:
暂无
卫星简介
Starlink 计划是 SpaceX 推出的全球卫星互联网项目,通过发射低轨道卫星,为全球尤其是偏远地区提供高速、低延迟的互联网服务。自 2019 年起,Starlink 已部署数千颗卫星,旨在缩小全球数字鸿沟,推动互联网普及。该项目还为军事、航空等行业提供通信支持,带来广泛经济效益。